Vertical_Velocity
-3 5 3 3 5 -1 0 -2 -0 -0 -1 0 1 -1 -2 0 1 -4 -4 -3 1 -2 -3 1 2 1 -1 -6 -11 -3 6 3
-0 8 4 3 1 -1 -1 -2 -1 -1 2 0 -2 -1 -1 -2 -3 -1 -2 -2 -0 2 -0 -4 -4 -4 -3 2 5 6 7 9
-3 -1 -0 -4 -4 -2 -2 1 -1 -0 -2 -3 -3 -3 -2 -1 0 -2 -3 -4 -5 1 2 4 2 7 2 3 2 -2 -5 -4
0 0 -1 0 0 0 -1 -1 0 -4 -3 1 0 -2 -3 -4 -2 -2 -1 -0 2 2 -1 -2 -2 -3 -5 2 -8 -1 -1 -2
5 2 -1 -1 -1 -2 3 0 4 2 -1 -1 2 -1 2 -1 -2 -4 -4 -3 -3 -4 -7 -9 -3 -1 -9 -8 -3 -3 -5 -3
7 9 3 2 -1 -2 -3 -1 -1 1 2 1 0 -1 -3 -2 -1 -0 -1 -5 -0 -1 -1 1 -1 -5 4 2 -3 3 5 -0
3 6 1 2 2 1 1 -0 -0 1 1 -1 0 1 1 -1 1 2 3 1 1 0 2 1 -3 -4 -3 3 4 3 1 3
5 5 3 -1 1 0 -3 -6 -4 0 2 -1 -2 2 3 5 4 2 2 -1 -1 0 -1 -0 2 -0 1 -4 -4 2 -1 -2
5 2 1 3 5 6 2 1 -1 -1 -1 1 3 1 -4 -3 -3 -3 -3 -3 -1 -2 -0 -1 -1 1 4 2 -0 -4 -5 -7
-4 -1 -1 0 0 -2 -1 -0 -1 0 3 4 3 2 2 -1 0 -0 -5 -4 -2 -0 -0 1 -0 1 -1 -3 1 6 5 -2
1 -2 0 -2 -3 -4 -3 -1 1 -2 -4 1 3 2 2 0 1 4 0 -3 -1 0 1 1 2 2 1 0 -3 -5 -4 4
-2 1 -0 -1 -1 0 -2 -4 -1 1 -2 -6 -4 2 4 -1 -4 -2 -0 0 -0 3 4 1 -1 -0 0 1 1 0 -1 -3
1 -1 -2 0 0 -1 -2 -3 -2 1 1 1 0 -5 -2 4 4 -0 -0 -3 -4 -2 -6 -8 -6 -5 -7 -0 -0 -4 -3 -1
1 -1 -2 -3 -4 -3 -3 -3 1 0 4 4 1 -1 -2 -9 -8 -5 -4 -7 -10 -5 -3 -3 -5 -7 -7 -5 -17 4 8 -1
-1 -3 1 -3 -7 -7 -10 -8 -8 -6 -4 -1 2 0 -2 -3 -2 1 4 -1 -5 -1 -3 -0 -3 -4 -7 -11 -18 -7 -13 8
-5 -10 -6 -1 -2 -2 -1 0 -3 -2 1 1 -2 1 -0 -2 3 2 1 3 2 1 1 -5 -2 -3 4 7 1 -6 -13 -27
-1 -2 -2 -1 2 -2 -7 -7 -2 2 -5 -6 -1 -0 3 5 2 1 -2 -3 -3 -1 1 -5 -4 -1 -5 -9 -4 3 1 -5
-3 2 9 6 1 -2 -6 3 -2 -8 -4 -2 -2 -4 -1 19 22 6 13 12 4 4 -1 4 5 -3 0 -7 -3 -6 -1 -4
-6 -4 -3 -5 -7 -11 -4 -4 -2 2 1 1 3 3 6 3 0 -1 -6 -2 8 1 3 -2 2 0 4 -5 -4 -2 -3 -1
3 -13 5 -1 1 -2 0 -3 -5 -2 2 4 3 8 -3 2 -3 6 20 13 -8 1 -3 22 26 1 -2 1 -2 -1 -0 -0
Height
3169 3169 3167 3165 3164 3161 3160 3158 3155 3154 3154 3152 3150 3148 3148 3147 3145 3144 3143 3142 3140 3140 3140 3139 3138 3137 3138 3141 3142 3142 3140 3143
3168 3166 3164 3162 3161 3160 3158 3155 3152 3151 3150 3149 3147 3146 3145 3144 3142 3142 3141 3140 3138 3136 3136 3136 3135 3133 3133 3134 3137 3139 3140 3140
3164 3163 3161 3160 3158 3157 3154 3152 3150 3149 3148 3147 3145 3143 3142 3141 3140 3140 3139 3139 3138 3137 3136 3134 3132 3130 3129 3130 3131 3133 3135 3135
3161 3160 3157 3155 3155 3153 3152 3150 3149 3148 3147 3146 3144 3142 3141 3140 3139 3137 3137 3136 3135 3135 3134 3132 3131 3130 3128 3127 3127 3127 3128 3129
3161 3160 3158 3156 3153 3151 3149 3148 3147 3145 3144 3143 3141 3140 3139 3137 3136 3134 3133 3131 3130 3128 3128 3129 3127 3126 3125 3124 3123 3123 3122 3121
3159 3158 3154 3152 3150 3148 3146 3144 3143 3142 3141 3139 3137 3136 3135 3133 3132 3131 3130 3128 3127 3126 3124 3123 3122 3121 3120 3118 3116 3116 3116 3113
3155 3155 3152 3149 3147 3145 3143 3141 3140 3138 3137 3135 3134 3132 3130 3129 3129 3127 3126 3124 3122 3122 3121 3119 3117 3117 3116 3114 3112 3110 3108 3108
3154 3152 3150 3147 3145 3143 3141 3139 3136 3134 3133 3130 3128 3127 3124 3123 3122 3122 3120 3119 3118 3116 3114 3114 3113 3112 3110 3108 3107 3106 3104 3102
3151 3148 3147 3145 3143 3141 3139 3137 3133 3130 3129 3126 3123 3120 3117 3115 3114 3113 3112 3111 3110 3109 3108 3106 3105 3104 3104 3103 3102 3100 3100 3099
3147 3146 3143 3140 3138 3135 3133 3131 3129 3126 3124 3121 3118 3115 3110 3108 3106 3104 3102 3101 3101 3101 3100 3099 3097 3096 3095 3095 3095 3094 3093 3092
3144 3141 3139 3136 3133 3130 3128 3125 3121 3118 3117 3114 3111 3108 3105 3102 3100 3098 3094 3093 3093 3092 3091 3090 3088 3087 3086 3086 3084 3084 3084 3082
3141 3138 3136 3133 3129 3125 3122 3119 3115 3110 3106 3105 3105 3103 3099 3095 3092 3091 3088 3087 3087 3086 3084 3082 3081 3079 3077 3075 3074 3073 3072 3072
3138 3135 3131 3128 3125 3122 3118 3114 3110 3105 3099 3096 3093 3093 3093 3090 3085 3082 3080 3078 3077 3076 3075 3075 3074 3070 3068 3067 3065 3062 3061 3060
3134 3130 3127 3124 3120 3117 3113 3109 3105 3100 3096 3091 3086 3083 3081 3079 3078 3074 3071 3069 3067 3066 3065 3065 3064 3062 3059 3056 3053 3056 3053 3050
3129 3126 3122 3118 3112 3107 3103 3100 3097 3093 3088 3084 3080 3075 3071 3069 3066 3065 3062 3059 3058 3056 3055 3054 3053 3050 3047 3046 3043 3040 3038 3040
3120 3118 3115 3111 3105 3099 3095 3090 3086 3084 3080 3076 3071 3068 3064 3061 3058 3056 3053 3050 3047 3045 3044 3043 3042 3039 3037 3038 3036 3032 3027 3021
3115 3112 3108 3104 3099 3095 3090 3085 3080 3074 3071 3068 3064 3060 3057 3054 3051 3048 3045 3041 3039 3036 3034 3031 3029 3027 3027 3028 3024 3022 3021 3016
3112 3107 3103 3099 3095 3092 3087 3079 3073 3067 3063 3059 3055 3050 3048 3043 3041 3038 3035 3030 3026 3024 3023 3021 3020 3019 3017 3017 3013 3010 3008 3005
3107 3102 3097 3093 3088 3084 3079 3072 3066 3059 3053 3048 3044 3039 3031 3030 3030 3028 3024 3019 3015 3013 3013 3009 3008 3006 3006 3004 3003 3001 2998 2995
3098 3092 3089 3084 3078 3073 3067 3062 3056 3049 3043 3037 3032 3028 3021 3016 3014 3011 3007 3005 3004 3000 2997 2997 2997 2996 2994 2993 2990 2988 2987 2984